Time,TemperatureF,DewpointF,PressureIn,WindDirection,WindDirectionDegrees,WindSpeedMPH,WindSpeedGustMPH,Humidity,HourlyPrecipIn,Conditions,Clouds,dailyrainin,SoftwareType,DateUTC
2013-03-16 00:00:00,49.9,44.9,30.14,NNW,327,0.0,0.0,83,0.00,,,0.00,Wunderground PWS Mod,2013-03-16 04:00:00,
2013-03-16 00:02:00,49.9,45.3,30.14,NNW,327,0.0,0.0,84,0.00,,,0.00,Wunderground PWS Mod,2013-03-16 04:02:00,
2013-03-16 00:06:00,49.8,45.2,30.14,NNW,327,0.0,0.0,84,0.00,,,0.00,Wunderground PWS Mod,2013-03-16 04:06:00,
2013-03-16 00:10:00,49.6,45.0,30.14,NNW,327,0.0,0.0,84,0.00,,,0.00,Wunderground PWS Mod,2013-03-16 04:10:00,
2013-03-16 00:16:00,49.5,44.9,30.14,NNW,327,0.0,0.0,84,0.00,,,0.00,Wunderground PWS Mod,2013-03-16 04:16:00,
2013-03-16 00:22:00,49.4,44.8,30.14,NNW,327,0.0,0.0,84,0.00,,,0.00,Wunderground PWS Mod,2013-03-16 04:22:00,
2013-03-16 00:28:00,49.2,44.6,30.14,NNW,327,0.0,0.0,84,0.00,,,0.00,Wunderground PWS Mod,2013-03-16 04:28:00,
2013-03-16 00:34:00,49.1,44.8,30.14,NNW,327,0.0,0.0,85,0.00,,,0.00,Wunderground PWS Mod,2013-03-16 04:34:00,
2013-03-16 00:40:00,49.1,44.8,30.14,NNW,327,0.0,0.0,85,0.00,,,0.00,Wunderground PWS Mod,2013-03-16 04:40:00,
2013-03-16 00:42:00,48.6,44.6,30.14,N/A,-737280,0.0,0.0,86,0.00,,,0.00,Wunderground PWS Mod,2013-03-16 04:42:00,
2013-03-16 00:46:00,48.9,44.6,30.14,NNW,327,0.0,0.0,85,0.00,,,0.00,Wunderground PWS Mod,2013-03-16 04:46:00,
2013-03-16 00:52:00,48.8,44.5,30.14,NNW,327,0.0,0.0,85,0.00,,,0.00,Wunderground PWS Mod,2013-03-16 04:52:00,
2013-03-16 00:58:00,48.8,44.5,30.14,NNW,327,0.0,0.0,85,0.00,,,0.00,Wunderground PWS Mod,2013-03-16 04:58:00,
2013-03-16 01:04:00,48.6,44.6,30.14,NNW,327,0.0,0.0,86,0.00,,,0.00,Wunderground PWS Mod,2013-03-16 05:04:00,
2013-03-16 01:10:00,48.5,44.5,30.14,NNW,327,0.0,0.0,86,0.00,,,0.00,Wunderground PWS Mod,2013-03-16 05:10:00,
2013-03-16 01:16:00,48.5,44.5,30.14,NNW,327,0.0,0.0,86,0.00,,,0.00,Wunderground PWS Mod,2013-03-16 05:16:00,
2013-03-16 01:22:00,48.3,44.3,30.14,NNW,327,0.0,0.0,86,0.00,,,0.00,Wunderground PWS Mod,2013-03-16 05:22:00,
2013-03-16 01:28:00,48.2,44.2,30.14,NNW,327,0.0,0.0,86,0.00,,,0.00,Wunderground PWS Mod,2013-03-16 05:28:00,
2013-03-16 01:34:00,48.0,44.0,30.13,NNW,327,0.0,0.0,86,0.00,,,0.00,Wunderground PWS Mod,2013-03-16 05:34:00,
2013-03-16 01:40:00,48.0,44.0,30.13,NNW,327,0.0,0.0,86,0.00,,,0.00,Wunderground PWS Mod,2013-03-16 05:40:00,
2013-03-16 01:46:00,48.0,44.0,30.13,NNW,327,0.0,0.0,86,0.00,,,0.00,Wunderground PWS Mod,2013-03-16 05:46:00,
2013-03-16 01:52:00,47.9,43.9,30.13,NNW,327,0.0,0.0,86,0.00,,,0.00,Wunderground PWS Mod,2013-03-16 05:52:00,
2013-03-16 01:58:00,47.7,44.0,30.13,NNW,327,0.0,0.0,87,0.00,,,0.00,Wunderground PWS Mod,2013-03-16 05:58:00,
2013-03-16 02:04:00,47.6,43.9,30.13,NNW,327,0.0,0.0,87,0.00,,,0.00,Wunderground PWS Mod,2013-03-16 06:04:00,
2013-03-16 02:10:00,47.6,43.9,30.13,NNW,327,0.0,0.0,87,0.00,,,0.00,Wunderground PWS Mod,2013-03-16 06:10:00,
2013-03-16 02:16:00,47.4,43.7,30.13,NNW,327,0.0,0.0,87,0.00,,,0.00,Wunderground PWS Mod,2013-03-16 06:16:00,
2013-03-16 02:22:00,47.4,43.7,30.13,NNW,327,0.0,0.0,87,0.00,,,0.00,Wunderground PWS Mod,2013-03-16 06:22:00,
2013-03-16 02:28:00,47.3,43.6,30.13,NNW,327,0.0,0.0,87,0.00,,,0.00,Wunderground PWS Mod,2013-03-16 06:28:00,
2013-03-16 02:32:00,46.8,43.1,30.12,N/A,-737280,0.0,0.0,87,0.00,,,0.00,Wunderground PWS Mod,2013-03-16 06:32:00,
2013-03-16 02:34:00,47.1,43.4,30.12,NNW,327,0.0,0.0,87,0.00,,,0.00,Wunderground PWS Mod,2013-03-16 06:34:00,
2013-03-16 02:40:00,47.0,43.3,30.12,NNW,327,0.0,0.0,87,0.00,,,0.00,Wunderground PWS Mod,2013-03-16 06:40:00,
2013-03-16 02:46:00,46.8,43.1,30.12,NNW,327,0.0,0.0,87,0.00,,,0.00,Wunderground PWS Mod,2013-03-16 06:46:00,
2013-03-16 02:52:00,46.8,43.1,30.12,NNW,327,0.0,0.0,87,0.00,,,0.00,Wunderground PWS Mod,2013-03-16 06:52:00,
2013-03-16 02:58:00,46.7,43.0,30.12,NNW,327,0.0,0.0,87,0.00,,,0.00,Wunderground PWS Mod,2013-03-16 06:58:00,
2013-03-16 03:00:00,46.2,42.8,30.11,N/A,-737280,0.0,0.0,88,0.00,,,0.00,Wunderground PWS Mod,2013-03-16 07:00:00,
2013-03-16 03:04:00,46.5,42.8,30.11,NNW,327,0.0,0.0,87,0.00,,,0.00,Wunderground PWS Mod,2013-03-16 07:04:00,
2013-03-16 03:10:00,46.5,42.8,30.11,NNW,327,0.0,0.0,87,0.00,,,0.00,Wunderground PWS Mod,2013-03-16 07:10:00,
2013-03-16 03:16:00,46.4,43.0,30.11,NNW,327,0.0,0.0,88,0.00,,,0.00,Wunderground PWS Mod,2013-03-16 07:16:00,
2013-03-16 03:22:00,46.2,42.8,30.11,NNW,327,0.0,0.0,88,0.00,,,0.00,Wunderground PWS Mod,2013-03-16 07:22:00,
2013-03-16 03:28:00,46.1,42.7,30.11,NNW,327,0.0,0.0,88,0.00,,,0.00,Wunderground PWS Mod,2013-03-16 07:28:00,
2013-03-16 03:34:00,46.0,42.6,30.11,NNW,327,0.0,0.0,88,0.00,,,0.00,Wunderground PWS Mod,2013-03-16 07:34:00,
2013-03-16 03:38:00,45.7,42.6,30.11,N/A,-737280,0.0,0.0,89,0.00,,,0.00,Wunderground PWS Mod,2013-03-16 07:38:00,
2013-03-16 03:40:00,45.8,42.4,30.11,NNW,327,0.0,0.0,88,0.00,,,0.00,Wunderground PWS Mod,2013-03-16 07:40:00,
2013-03-16 03:46:00,45.7,42.6,30.11,NNW,327,0.0,0.0,89,0.00,,,0.00,Wunderground PWS Mod,2013-03-16 07:46:00,
2013-03-16 03:52:00,45.7,42.6,30.11,NNW,327,0.0,0.0,89,0.00,,,0.00,Wunderground PWS Mod,2013-03-16 07:52:00,
2013-03-16 03:58:00,45.7,42.6,30.11,NNW,327,0.0,0.0,89,0.00,,,0.00,Wunderground PWS Mod,2013-03-16 07:58:00,
2013-03-16 04:04:00,45.5,42.7,30.11,NNW,327,0.0,0.0,90,0.00,,,0.00,Wunderground PWS Mod,2013-03-16 08:04:00,
2013-03-16 04:06:00,45.4,42.6,30.11,N/A,-737280,0.0,0.0,90,0.00,,,0.00,Wunderground PWS Mod,2013-03-16 08:06:00,
2013-03-16 04:10:00,45.5,42.7,30.11,NNW,327,0.0,0.0,90,0.00,,,0.00,Wunderground PWS Mod,2013-03-16 08:10:00,
2013-03-16 04:16:00,45.4,42.6,30.11,NNW,327,0.0,0.0,90,0.00,,,0.00,Wunderground PWS Mod,2013-03-16 08:16:00,
2013-03-16 04:22:00,45.4,42.6,30.11,NNW,327,0.0,0.0,90,0.00,,,0.00,Wunderground PWS Mod,2013-03-16 08:22:00,
2013-03-16 04:28:00,45.2,42.4,30.11,NNW,327,0.0,0.0,90,0.00,,,0.00,Wunderground PWS Mod,2013-03-16 08:28:00,
2013-03-16 04:32:00,45.1,42.6,30.10,N/A,-737280,0.0,0.0,91,0.00,,,0.00,Wunderground PWS Mod,2013-03-16 08:32:00,
2013-03-16 04:34:00,45.2,42.4,30.10,NNW,327,0.0,0.0,90,0.00,,,0.00,Wunderground PWS Mod,2013-03-16 08:34:00,
2013-03-16 04:40:00,45.1,42.3,30.10,NNW,327,0.0,0.0,90,0.00,,,0.00,Wunderground PWS Mod,2013-03-16 08:40:00,
2013-03-16 04:46:00,45.1,42.3,30.10,NNW,327,0.0,0.0,90,0.00,,,0.00,Wunderground PWS Mod,2013-03-16 08:46:00,
2013-03-16 04:52:00,44.9,42.4,30.10,NNW,327,0.0,0.0,91,0.00,,,0.00,Wunderground PWS Mod,2013-03-16 08:52:00,
2013-03-16 04:58:00,44.9,42.4,30.10,NNW,327,0.0,0.0,91,0.00,,,0.00,Wunderground PWS Mod,2013-03-16 08:58:00,
2013-03-16 05:04:00,44.8,42.3,30.10,NNW,327,0.0,0.0,91,0.00,,,0.00,Wunderground PWS Mod,2013-03-16 09:04:00,
2013-03-16 05:10:00,44.8,42.3,30.10,NNW,327,0.0,0.0,91,0.00,,,0.00,Wunderground PWS Mod,2013-03-16 09:10:00,
2013-03-16 05:18:00,44.6,42.1,30.10,NNW,327,0.0,0.0,91,0.00,,,0.00,Wunderground PWS Mod,2013-03-16 09:18:00,
2013-03-16 05:24:00,44.5,42.0,30.10,NNW,327,0.0,0.0,91,0.00,,,0.00,Wunderground PWS Mod,2013-03-16 09:24:00,
2013-03-16 05:28:00,44.2,42.0,30.10,N/A,-737280,0.0,0.0,92,0.00,,,0.00,Wunderground PWS Mod,2013-03-16 09:28:00,
2013-03-16 05:30:00,44.5,42.0,30.10,NNW,327,0.0,0.0,91,0.00,,,0.00,Wunderground PWS Mod,2013-03-16 09:30:00,
2013-03-16 05:36:00,44.3,41.8,30.10,NNW,327,0.0,0.0,91,0.00,,,0.00,Wunderground PWS Mod,2013-03-16 09:36:00,
2013-03-16 05:42:00,44.2,42.0,30.10,NNW,327,0.0,0.0,92,0.00,,,0.00,Wunderground PWS Mod,2013-03-16 09:42:00,
2013-03-16 05:48:00,44.2,42.0,30.10,NNW,327,0.0,0.0,92,0.00,,,0.00,Wunderground PWS Mod,2013-03-16 09:48:00,
2013-03-16 05:54:00,44.1,41.9,30.10,NNW,327,0.0,0.0,92,0.00,,,0.00,Wunderground PWS Mod,2013-03-16 09:54:00,
2013-03-16 06:00:00,44.1,41.9,30.10,NNW,327,0.0,0.0,92,0.00,,,0.00,Wunderground PWS Mod,2013-03-16 10:00:00,
2013-03-16 06:02:00,43.8,41.6,30.11,N/A,-737280,0.0,0.0,92,0.00,,,0.00,Wunderground PWS Mod,2013-03-16 10:02:00,
2013-03-16 06:06:00,43.9,41.7,30.10,NNW,327,0.0,0.0,92,0.00,,,0.00,Wunderground PWS Mod,2013-03-16 10:06:00,
2013-03-16 06:12:00,43.9,41.7,30.10,NNW,327,0.0,0.0,92,0.00,,,0.00,Wunderground PWS Mod,2013-03-16 10:12:00,
2013-03-16 06:18:00,43.8,41.6,30.10,NNW,327,0.0,0.0,92,0.00,,,0.00,Wunderground PWS Mod,2013-03-16 10:18:00,
2013-03-16 06:24:00,43.8,41.6,30.11,NNW,327,0.0,0.0,92,0.00,,,0.00,Wunderground PWS Mod,2013-03-16 10:24:00,
2013-03-16 06:30:00,43.6,41.4,30.11,NNW,327,0.0,0.0,92,0.00,,,0.00,Wunderground PWS Mod,2013-03-16 10:30:00,
2013-03-16 06:36:00,43.6,41.4,30.11,NNW,327,0.0,0.0,92,0.00,,,0.00,Wunderground PWS Mod,2013-03-16 10:36:00,
2013-03-16 06:42:00,43.5,41.3,30.11,NNW,327,0.0,0.0,92,0.00,,,0.00,Wunderground PWS Mod,2013-03-16 10:42:00,
2013-03-16 06:48:00,43.5,41.3,30.11,NNW,327,0.0,0.0,92,0.00,,,0.00,Wunderground PWS Mod,2013-03-16 10:48:00,
2013-03-16 06:55:00,43.3,41.4,30.12,NNW,327,0.0,0.0,93,0.00,,,0.00,Wunderground PWS Mod,2013-03-16 10:55:00,
2013-03-16 06:58:00,43.2,41.3,30.12,N/A,-737280,0.0,0.0,93,0.00,,,0.00,Wunderground PWS Mod,2013-03-16 10:58:00,
2013-03-16 07:00:00,43.3,41.4,30.12,NNW,327,0.0,0.0,93,0.00,,,0.00,Wunderground PWS Mod,2013-03-16 11:00:00,
2013-03-16 07:06:00,43.3,41.4,30.12,NNW,327,0.0,0.0,93,0.00,,,0.00,Wunderground PWS Mod,2013-03-16 11:06:00,
2013-03-16 07:12:00,43.2,41.3,30.12,NNW,327,0.0,0.0,93,0.00,,,0.00,Wunderground PWS Mod,2013-03-16 11:12:00,
2013-03-16 07:18:00,43.2,41.3,30.12,NNW,327,0.0,0.0,93,0.00,,,0.00,Wunderground PWS Mod,2013-03-16 11:18:00,
2013-03-16 07:24:00,43.2,41.3,30.12,NNW,327,0.0,0.0,93,0.00,,,0.00,Wunderground PWS Mod,2013-03-16 11:24:00,
2013-03-16 07:30:00,43.2,41.3,30.12,NNW,327,0.0,0.0,93,0.00,,,0.00,Wunderground PWS Mod,2013-03-16 11:30:00,
2013-03-16 07:36:00,43.2,41.3,30.13,NNW,327,0.0,0.0,93,0.00,,,0.00,Wunderground PWS Mod,2013-03-16 11:36:00,
2013-03-16 07:42:00,43.2,41.3,30.13,NNW,327,0.0,0.0,93,0.00,,,0.00,Wunderground PWS Mod,2013-03-16 11:42:00,
2013-03-16 07:44:00,43.6,41.7,30.13,N/A,-737280,0.0,0.0,93,0.00,,,0.00,Wunderground PWS Mod,2013-03-16 11:44:00,
2013-03-16 07:48:00,43.2,41.3,30.13,NNW,327,0.0,0.0,93,0.00,,,0.00,Wunderground PWS Mod,2013-03-16 11:48:00,
2013-03-16 07:54:00,43.3,41.4,30.13,NNW,327,0.0,0.0,93,0.00,,,0.00,Wunderground PWS Mod,2013-03-16 11:54:00,
2013-03-16 08:00:00,43.5,41.6,30.13,NNW,327,0.0,0.0,93,0.00,,,0.00,Wunderground PWS Mod,2013-03-16 12:00:00,
2013-03-16 08:06:00,43.8,41.9,30.14,NNW,327,0.0,0.0,93,0.00,,,0.00,Wunderground PWS Mod,2013-03-16 12:06:00,
2013-03-16 08:08:00,44.5,42.6,30.14,N/A,-737280,0.0,0.0,93,0.00,,,0.00,Wunderground PWS Mod,2013-03-16 12:08:00,
2013-03-16 08:12:00,43.9,42.0,30.14,NNW,327,0.0,0.0,93,0.00,,,0.00,Wunderground PWS Mod,2013-03-16 12:12:00,
2013-03-16 08:18:00,44.2,42.3,30.14,NNW,327,0.0,0.0,93,0.00,,,0.00,Wunderground PWS Mod,2013-03-16 12:18:00,
2013-03-16 08:24:00,44.3,42.4,30.14,NNW,327,0.0,0.0,93,0.00,,,0.00,Wunderground PWS Mod,2013-03-16 12:24:00,
2013-03-16 08:30:00,44.5,42.6,30.14,NNW,327,0.0,0.0,93,0.00,,,0.00,Wunderground PWS Mod,2013-03-16 12:30:00,
2013-03-16 08:36:00,44.9,43.3,30.14,NNW,327,0.0,0.0,94,0.00,,,0.00,Wunderground PWS Mod,2013-03-16 12:36:00,
2013-03-16 08:42:00,45.5,43.9,30.14,NNW,327,0.0,0.0,94,0.00,,,0.00,Wunderground PWS Mod,2013-03-16 12:42:00,
2013-03-16 08:48:00,46.8,45.4,30.14,NNW,327,0.0,0.0,95,0.00,,,0.00,Wunderground PWS Mod,2013-03-16 12:48:00,
2013-03-16 08:54:00,48.6,47.2,30.14,NNW,327,0.0,0.0,95,0.00,,,0.00,Wunderground PWS Mod,2013-03-16 12:54:00,
2013-03-16 09:00:00,50.4,49.0,30.14,NNW,327,0.0,0.0,95,0.00,,,0.00,Wunderground PWS Mod,2013-03-16 13:00:00,
2013-03-16 09:06:00,51.6,49.9,30.14,NNW,327,0.0,0.0,94,0.00,,,0.00,Wunderground PWS Mod,2013-03-16 13:06:00,
2013-03-16 09:12:00,52.8,51.1,30.14,NNW,327,0.0,0.0,94,0.00,,,0.00,Wunderground PWS Mod,2013-03-16 13:12:00,
2013-03-16 09:18:00,53.8,51.8,30.14,NNW,327,0.0,0.0,93,0.00,,,0.00,Wunderground PWS Mod,2013-03-16 13:18:00,
2013-03-16 09:22:00,57.5,54.0,30.15,N/A,-737280,0.0,0.0,88,0.00,,,0.00,Wunderground PWS Mod,2013-03-16 13:22:00,
2013-03-16 09:24:00,54.5,52.5,30.14,NNW,327,0.0,0.0,93,0.00,,,0.00,Wunderground PWS Mod,2013-03-16 13:24:00,
2013-03-16 09:30:00,55.4,53.1,30.14,WSW,250,0.0,0.0,92,0.00,,,0.00,Wunderground PWS Mod,2013-03-16 13:30:00,
2013-03-16 09:36:00,56.6,53.7,30.15,WSW,250,0.0,0.0,90,0.00,,,0.00,Wunderground PWS Mod,2013-03-16 13:36:00,
2013-03-16 09:42:00,57.8,54.3,30.15,WSW,250,0.0,0.0,88,0.00,,,0.00,Wunderground PWS Mod,2013-03-16 13:42:00,
2013-03-16 09:48:00,58.9,54.4,30.15,WSW,250,0.0,0.0,85,0.00,,,0.00,Wunderground PWS Mod,2013-03-16 13:48:00,
2013-03-16 09:50:00,63.2,53.6,30.14,WSW,248,0.0,1.0,71,0.00,,,0.00,Wunderground PWS Mod,2013-03-16 13:50:00,
2013-03-16 09:54:00,60.2,54.3,30.15,WSW,250,0.0,0.0,81,0.00,,,0.00,Wunderground PWS Mod,2013-03-16 13:54:00,
2013-03-16 10:00:00,61.5,54.2,30.15,WSW,250,0.0,0.0,77,0.00,,,0.00,Wunderground PWS Mod,2013-03-16 14:00:00,
2013-03-16 10:06:00,62.7,53.5,30.14,WSW,238,0.0,0.0,72,0.00,,,0.00,Wunderground PWS Mod,2013-03-16 14:06:00,
2013-03-16 10:12:00,63.7,52.9,30.14,WSW,241,0.0,0.0,68,0.00,,,0.00,Wunderground PWS Mod,2013-03-16 14:12:00,
2013-03-16 10:18:00,64.8,53.6,30.14,SSW,209,0.0,1.0,67,0.00,,,0.00,Wunderground PWS Mod,2013-03-16 14:18:00,
2013-03-16 10:24:00,65.8,51.5,30.14,WSW,237,0.0,6.0,60,0.00,,,0.00,Wunderground PWS Mod,2013-03-16 14:24:00,
2013-03-16 10:28:00,70.2,51.2,30.14,N/A,-737280,0.0,0.0,51,0.00,,,0.00,Wunderground PWS Mod,2013-03-16 14:28:00,
2013-03-16 10:30:00,67.1,52.3,30.14,NE,36,0.0,0.0,59,0.00,,,0.00,Wunderground PWS Mod,2013-03-16 14:30:00,
2013-03-16 10:36:00,68.3,52.0,30.14,SW,215,0.0,0.0,56,0.00,,,0.00,Wunderground PWS Mod,2013-03-16 14:36:00,
2013-03-16 10:42:00,69.4,50.5,30.14,SSW,213,0.0,1.0,51,0.00,,,0.00,Wunderground PWS Mod,2013-03-16 14:42:00,
2013-03-16 10:48:00,70.3,50.8,30.14,WNW,294,0.0,0.0,50,0.00,,,0.00,Wunderground PWS Mod,2013-03-16 14:48:00,
2013-03-16 10:52:00,71.2,49.4,30.14,N/A,-737280,0.0,0.0,46,0.00,,,0.00,Wunderground PWS Mod,2013-03-16 14:52:00,
2013-03-16 10:54:00,70.9,50.2,30.14,ENE,69,0.0,1.0,48,0.00,,,0.00,Wunderground PWS Mod,2013-03-16 14:54:00,
2013-03-16 11:00:00,71.5,49.0,30.14,NW,321,0.0,1.0,45,0.00,,,0.00,Wunderground PWS Mod,2013-03-16 15:00:00,
2013-03-16 11:06:00,71.3,48.9,30.14,SE,138,0.0,1.0,45,0.00,,,0.00,Wunderground PWS Mod,2013-03-16 15:06:00,
2013-03-16 11:12:00,71.3,50.0,30.14,SSW,209,0.0,0.0,47,0.00,,,0.00,Wunderground PWS Mod,2013-03-16 15:12:00,
2013-03-16 11:16:00,72.1,49.0,30.13,SSE,158,0.0,1.0,44,0.00,,,0.00,Wunderground PWS Mod,2013-03-16 15:16:00,
2013-03-16 11:18:00,71.3,48.9,30.14,SW,217,0.0,0.0,45,0.00,,,0.00,Wunderground PWS Mod,2013-03-16 15:18:00,
2013-03-16 11:24:00,71.5,49.0,30.14,South,187,0.0,1.0,45,0.00,,,0.00,Wunderground PWS Mod,2013-03-16 15:24:00,
2013-03-16 11:30:00,72.0,50.7,30.14,SSE,167,0.0,4.0,47,0.00,,,0.00,Wunderground PWS Mod,2013-03-16 15:30:00,
2013-03-16 11:36:00,72.3,49.2,30.13,SSE,165,0.0,1.0,44,0.00,,,0.00,Wunderground PWS Mod,2013-03-16 15:36:00,
2013-03-16 11:40:00,73.3,46.8,30.13,South,180,2.0,3.0,39,0.00,,,0.00,Wunderground PWS Mod,2013-03-16 15:40:00,
2013-03-16 11:42:00,72.3,47.3,30.13,SSE,150,0.0,0.0,41,0.00,,,0.00,Wunderground PWS Mod,2013-03-16 15:42:00,
2013-03-16 11:48:00,72.5,46.8,30.13,NNE,15,0.0,3.0,40,0.00,,,0.00,Wunderground PWS Mod,2013-03-16 15:48:00,
2013-03-16 11:54:00,72.8,47.7,30.13,SE,131,0.0,4.0,41,0.00,,,0.00,Wunderground PWS Mod,2013-03-16 15:54:00,
2013-03-16 12:00:00,73.3,49.4,30.13,South,185,0.0,3.0,43,0.00,,,0.00,Wunderground PWS Mod,2013-03-16 16:00:00,
2013-03-16 12:06:00,73.7,47.9,30.13,South,171,0.0,0.0,40,0.00,,,0.00,Wunderground PWS Mod,2013-03-16 16:06:00,
2013-03-16 12:12:00,73.7,45.8,30.13,NW,304,1.0,1.0,37,0.00,,,0.00,Wunderground PWS Mod,2013-03-16 16:12:00,
2013-03-16 12:18:00,74.7,51.3,30.13,SE,124,1.0,1.0,44,0.00,,,0.00,Wunderground PWS Mod,2013-03-16 16:18:00,
2013-03-16 12:24:00,75.3,47.2,30.13,SSW,211,1.0,1.0,37,0.00,,,0.00,Wunderground PWS Mod,2013-03-16 16:24:00,
2013-03-16 12:28:00,76.5,44.4,30.12,SSW,203,2.0,3.0,32,0.00,,,0.00,Wunderground PWS Mod,2013-03-16 16:28:00,
2013-03-16 12:30:00,75.8,49.1,30.13,South,169,1.0,1.0,39,0.00,,,0.00,Wunderground PWS Mod,2013-03-16 16:30:00,
2013-03-16 12:36:00,76.0,44.8,30.12,East,84,0.0,0.0,33,0.00,,,0.00,Wunderground PWS Mod,2013-03-16 16:36:00,
2013-03-16 12:42:00,76.5,45.2,30.12,ENE,57,0.0,0.0,33,0.00,,,0.00,Wunderground PWS Mod,2013-03-16 16:42:00,
2013-03-16 12:48:00,76.3,45.1,30.12,SSW,209,1.0,1.0,33,0.00,,,0.00,Wunderground PWS Mod,2013-03-16 16:48:00,
2013-03-16 12:54:00,76.0,44.8,30.11,South,180,1.0,1.0,33,0.00,,,0.00,Wunderground PWS Mod,2013-03-16 16:54:00,
2013-03-16 13:00:00,76.1,44.9,30.11,SSE,151,1.0,3.0,33,0.00,,,0.00,Wunderground PWS Mod,2013-03-16 17:00:00,
2013-03-16 13:02:00,76.1,44.1,30.10,South,180,0.0,1.0,32,0.00,,,0.00,Wunderground PWS Mod,2013-03-16 17:02:00,
2013-03-16 13:06:00,76.3,45.1,30.11,East,82,1.0,1.0,33,0.00,,,0.00,Wunderground PWS Mod,2013-03-16 17:06:00,
2013-03-16 13:12:00,76.7,43.8,30.11,ESE,109,0.0,0.0,31,0.00,,,0.00,Wunderground PWS Mod,2013-03-16 17:12:00,
2013-03-16 13:18:00,76.5,43.6,30.11,SSE,165,1.0,1.0,31,0.00,,,0.00,Wunderground PWS Mod,2013-03-16 17:18:00,
2013-03-16 13:24:00,76.0,44.8,30.10,South,186,1.0,1.0,33,0.00,,,0.00,Wunderground PWS Mod,2013-03-16 17:24:00,
2013-03-16 13:30:00,76.3,44.3,30.10,SW,235,0.0,1.0,32,0.00,,,0.00,Wunderground PWS Mod,2013-03-16 17:30:00,
2013-03-16 13:34:00,76.0,40.5,30.08,N/A,-737280,0.0,0.0,28,0.00,,,0.00,Wunderground PWS Mod,2013-03-16 17:34:00,
2013-03-16 13:36:00,76.7,42.0,30.09,SE,133,1.0,1.0,29,0.00,,,0.00,Wunderground PWS Mod,2013-03-16 17:36:00,
2013-03-16 13:42:00,76.3,42.6,30.09,West,277,1.0,4.0,30,0.00,,,0.00,Wunderground PWS Mod,2013-03-16 17:42:00,
2013-03-16 13:48:00,76.0,44.8,30.09,West,277,1.0,1.0,33,0.00,,,0.00,Wunderground PWS Mod,2013-03-16 17:48:00,
2013-03-16 13:54:00,76.0,41.4,30.08,West,271,0.0,2.0,29,0.00,,,0.00,Wunderground PWS Mod,2013-03-16 17:54:00,
2013-03-16 13:58:00,76.8,42.1,30.08,N/A,-737280,0.0,0.0,29,0.00,,,0.00,Wunderground PWS Mod,2013-03-16 17:58:00,
2013-03-16 14:00:00,76.3,44.3,30.08,South,189,0.0,0.0,32,0.00,,,0.00,Wunderground PWS Mod,2013-03-16 18:00:00,
2013-03-16 14:06:00,76.8,41.2,30.08,East,101,1.0,1.0,28,0.00,,,0.00,Wunderground PWS Mod,2013-03-16 18:06:00,
2013-03-16 14:12:00,77.0,44.0,30.08,SSE,161,1.0,1.0,31,0.00,,,0.00,Wunderground PWS Mod,2013-03-16 18:12:00,
2013-03-16 14:18:00,76.8,43.0,30.08,WNW,302,0.0,0.0,30,0.00,,,0.00,Wunderground PWS Mod,2013-03-16 18:18:00,
2013-03-16 14:24:00,77.0,44.9,30.07,SW,224,0.0,3.0,32,0.00,,,0.00,Wunderground PWS Mod,2013-03-16 18:24:00,
2013-03-16 14:28:00,77.6,46.2,30.06,N/A,-737280,0.0,0.0,33,0.00,,,0.00,Wunderground PWS Mod,2013-03-16 18:28:00,
2013-03-16 14:30:00,77.2,43.4,30.07,SW,219,0.0,1.0,30,0.00,,,0.00,Wunderground PWS Mod,2013-03-16 18:30:00,
2013-03-16 14:38:00,77.2,43.4,30.06,NW,311,1.0,3.0,30,0.00,,,0.00,Wunderground PWS Mod,2013-03-16 18:38:00,
2013-03-16 14:44:00,77.6,41.9,30.06,NNE,16,1.0,3.0,28,0.00,,,0.00,Wunderground PWS Mod,2013-03-16 18:44:00,
2013-03-16 14:50:00,77.7,47.1,30.05,NNW,348,0.0,0.0,34,0.00,,,0.00,Wunderground PWS Mod,2013-03-16 18:50:00,
2013-03-16 14:56:00,78.1,48.2,30.05,SW,236,0.0,0.0,35,0.00,,,0.00,Wunderground PWS Mod,2013-03-16 18:56:00,
2013-03-16 15:02:00,77.7,47.1,30.05,South,175,1.0,6.0,34,0.00,,,0.00,Wunderground PWS Mod,2013-03-16 19:02:00,
2013-03-16 15:06:00,76.8,50.0,30.04,South,180,2.0,3.0,39,0.00,,,0.00,Wunderground PWS Mod,2013-03-16 19:06:00,
2013-03-16 15:08:00,77.7,50.1,30.05,South,191,2.0,5.0,38,0.00,,,0.00,Wunderground PWS Mod,2013-03-16 19:08:00,
2013-03-16 15:14:00,77.2,49.6,30.05,South,180,3.0,7.0,38,0.00,,,0.00,Wunderground PWS Mod,2013-03-16 19:14:00,
2013-03-16 15:20:00,76.8,49.3,30.04,South,185,3.0,9.0,38,0.00,,,0.00,Wunderground PWS Mod,2013-03-16 19:20:00,
2013-03-16 15:26:00,77.0,50.1,30.04,SSW,198,2.0,3.0,39,0.00,,,0.00,Wunderground PWS Mod,2013-03-16 19:26:00,
2013-03-16 15:30:00,75.6,47.5,30.03,South,180,2.0,5.0,37,0.00,,,0.00,Wunderground PWS Mod,2013-03-16 19:30:00,
2013-03-16 15:32:00,77.4,48.3,30.04,SSW,193,2.0,3.0,36,0.00,,,0.00,Wunderground PWS Mod,2013-03-16 19:32:00,
2013-03-16 15:38:00,76.3,48.8,30.04,South,189,3.0,9.0,38,0.00,,,0.00,Wunderground PWS Mod,2013-03-16 19:38:00,
2013-03-16 15:44:00,76.0,47.8,30.04,SW,217,3.0,6.0,37,0.00,,,0.00,Wunderground PWS Mod,2013-03-16 19:44:00,
2013-03-16 15:50:00,75.8,46.9,30.03,West,271,2.0,5.0,36,0.00,,,0.00,Wunderground PWS Mod,2013-03-16 19:50:00,
2013-03-16 15:56:00,76.3,48.1,30.03,SSW,199,1.0,5.0,37,0.00,,,0.00,Wunderground PWS Mod,2013-03-16 19:56:00,
2013-03-16 15:58:00,76.4,48.2,30.03,N/A,-737280,0.0,0.0,37,0.00,,,0.00,Wunderground PWS Mod,2013-03-16 19:58:00,
2013-03-16 16:02:00,76.7,47.0,30.03,SSE,148,1.0,4.0,35,0.00,,,0.00,Wunderground PWS Mod,2013-03-16 20:02:00,
2013-03-16 16:08:00,76.7,48.5,30.03,South,190,1.0,1.0,37,0.00,,,0.00,Wunderground PWS Mod,2013-03-16 20:08:00,
2013-03-16 16:14:00,76.7,47.7,30.03,SSE,167,1.0,4.0,36,0.00,,,0.00,Wunderground PWS Mod,2013-03-16 20:14:00,
2013-03-16 16:20:00,76.1,48.6,30.03,SSW,193,1.0,1.0,38,0.00,,,0.00,Wunderground PWS Mod,2013-03-16 20:20:00,
2013-03-16 16:24:00,74.7,48.1,30.03,NW,315,0.0,1.0,39,0.00,,,0.00,Wunderground PWS Mod,2013-03-16 20:24:00,
2013-03-16 16:26:00,75.8,47.7,30.03,SW,229,1.0,5.0,37,0.00,,,0.00,Wunderground PWS Mod,2013-03-16 20:26:00,
2013-03-16 16:32:00,75.3,49.3,30.03,South,169,1.0,5.0,40,0.00,,,0.00,Wunderground PWS Mod,2013-03-16 20:32:00,
2013-03-16 16:38:00,74.9,47.6,30.03,West,271,1.0,4.0,38,0.00,,,0.00,Wunderground PWS Mod,2013-03-16 20:38:00,
2013-03-16 16:44:00,74.7,48.8,30.03,NW,312,1.0,2.0,40,0.00,,,0.00,Wunderground PWS Mod,2013-03-16 20:44:00,
2013-03-16 16:50:00,74.6,48.0,30.03,SSW,212,1.0,3.0,39,0.00,,,0.00,Wunderground PWS Mod,2013-03-16 20:50:00,
2013-03-16 16:54:00,74.4,49.2,30.03,South,180,0.0,1.0,41,0.00,,,0.00,Wunderground PWS Mod,2013-03-16 20:54:00,
2013-03-16 16:58:00,74.6,48.7,30.03,South,180,1.0,2.0,40,0.00,,,0.00,Wunderground PWS Mod,2013-03-16 20:58:00,
2013-03-16 17:04:00,74.6,48.7,30.03,SSW,194,1.0,4.0,40,0.00,,,0.00,Wunderground PWS Mod,2013-03-16 21:04:00,
2013-03-16 17:10:00,74.4,50.4,30.03,South,190,1.0,2.0,43,0.00,,,0.00,Wunderground PWS Mod,2013-03-16 21:10:00,
2013-03-16 17:16:00,74.0,48.8,30.03,SSE,165,1.0,3.0,41,0.00,,,0.00,Wunderground PWS Mod,2013-03-16 21:16:00,
2013-03-16 17:22:00,73.9,48.1,30.03,SSW,211,1.0,3.0,40,0.00,,,0.00,Wunderground PWS Mod,2013-03-16 21:22:00,
2013-03-16 17:24:00,72.7,47.6,30.03,SSE,158,2.0,4.0,41,0.00,,,0.00,Wunderground PWS Mod,2013-03-16 21:24:00,
2013-03-16 17:28:00,73.5,48.4,30.03,SSW,203,1.0,5.0,41,0.00,,,0.00,Wunderground PWS Mod,2013-03-16 21:28:00,
2013-03-16 17:34:00,73.0,48.5,30.03,South,184,1.0,3.0,42,0.00,,,0.00,Wunderground PWS Mod,2013-03-16 21:34:00,
2013-03-16 17:40:00,72.8,48.4,30.03,SSW,192,1.0,2.0,42,0.00,,,0.00,Wunderground PWS Mod,2013-03-16 21:40:00,
2013-03-16 17:46:00,72.5,48.7,30.03,South,173,1.0,4.0,43,0.00,,,0.00,Wunderground PWS Mod,2013-03-16 21:46:00,
2013-03-16 17:50:00,71.6,48.5,30.03,SSE,158,1.0,2.0,44,0.00,,,0.00,Wunderground PWS Mod,2013-03-16 21:50:00,
2013-03-16 17:52:00,72.3,48.5,30.03,South,183,1.0,3.0,43,0.00,,,0.00,Wunderground PWS Mod,2013-03-16 21:52:00,
2013-03-16 17:58:00,72.0,47.6,30.03,South,184,2.0,6.0,42,0.00,,,0.00,Wunderground PWS Mod,2013-03-16 21:58:00,
2013-03-16 18:04:00,71.8,48.1,30.03,South,183,2.0,3.0,43,0.00,,,0.00,Wunderground PWS Mod,2013-03-16 22:04:00,
2013-03-16 18:10:00,71.6,48.5,30.03,SSE,148,1.0,5.0,44,0.00,,,0.00,Wunderground PWS Mod,2013-03-16 22:10:00,
2013-03-16 18:16:00,71.6,49.1,30.03,SSW,199,1.0,4.0,45,0.00,,,0.00,Wunderground PWS Mod,2013-03-16 22:16:00,
2013-03-16 18:22:00,71.5,49.0,30.04,South,188,0.0,0.0,45,0.00,,,0.00,Wunderground PWS Mod,2013-03-16 22:22:00,
2013-03-16 18:28:00,71.3,48.9,30.04,SSW,202,0.0,3.0,45,0.00,,,0.00,Wunderground PWS Mod,2013-03-16 22:28:00,
2013-03-16 18:34:00,70.9,49.1,30.04,SSW,192,1.0,3.0,46,0.00,,,0.00,Wunderground PWS Mod,2013-03-16 22:34:00,
2013-03-16 18:40:00,70.6,50.0,30.04,SSW,192,1.0,4.0,48,0.00,,,0.00,Wunderground PWS Mod,2013-03-16 22:40:00,
2013-03-16 18:42:00,69.3,49.9,30.04,N/A,-737280,0.0,0.0,50,0.00,,,0.00,Wunderground PWS Mod,2013-03-16 22:42:00,
2013-03-16 18:46:00,70.3,50.2,30.04,SW,221,1.0,2.0,49,0.00,,,0.00,Wunderground PWS Mod,2013-03-16 22:46:00,
2013-03-16 18:52:00,69.9,49.9,30.04,SW,216,0.0,1.0,49,0.00,,,0.00,Wunderground PWS Mod,2013-03-16 22:52:00,
2013-03-16 18:58:00,69.6,50.1,30.04,SSW,206,0.0,2.0,50,0.00,,,0.00,Wunderground PWS Mod,2013-03-16 22:58:00,
2013-03-16 19:04:00,69.3,49.9,30.05,SSW,206,0.0,2.0,50,0.00,,,0.00,Wunderground PWS Mod,2013-03-16 23:04:00,
2013-03-16 19:10:00,68.9,50.0,30.05,SE,140,0.0,2.0,51,0.00,,,0.00,Wunderground PWS Mod,2013-03-16 23:10:00,
2013-03-16 19:12:00,67.5,50.3,30.04,N/A,-737280,0.0,0.0,54,0.00,,,0.00,Wunderground PWS Mod,2013-03-16 23:12:00,
2013-03-16 19:16:00,68.6,50.3,30.05,SE,140,0.0,0.0,52,0.00,,,0.00,Wunderground PWS Mod,2013-03-16 23:16:00,
2013-03-16 19:22:00,68.1,50.3,30.04,SE,140,0.0,0.0,53,0.00,,,0.00,Wunderground PWS Mod,2013-03-16 23:22:00,
2013-03-16 19:28:00,67.8,50.5,30.04,SE,140,0.0,0.0,54,0.00,,,0.00,Wunderground PWS Mod,2013-03-16 23:28:00,
2013-03-16 19:34:00,67.3,50.1,30.05,SE,140,0.0,0.0,54,0.00,,,0.00,Wunderground PWS Mod,2013-03-16 23:34:00,
2013-03-16 19:40:00,66.9,50.2,30.05,SE,140,0.0,0.0,55,0.00,,,0.00,Wunderground PWS Mod,2013-03-16 23:40:00,
2013-03-16 19:46:00,66.4,50.2,30.05,SE,140,0.0,0.0,56,0.00,,,0.00,Wunderground PWS Mod,2013-03-16 23:46:00,
2013-03-16 19:52:00,65.8,50.1,30.05,SE,140,0.0,0.0,57,0.00,,,0.00,Wunderground PWS Mod,2013-03-16 23:52:00,
2013-03-16 19:58:00,65.0,50.3,30.05,SE,140,0.0,0.0,59,0.00,,,0.00,Wunderground PWS Mod,2013-03-16 23:58:00,
2013-03-16 20:04:00,64.3,50.1,30.05,SE,140,0.0,0.0,60,0.00,,,0.00,Wunderground PWS Mod,2013-03-17 00:04:00,
2013-03-16 20:10:00,63.7,50.0,30.05,SE,140,0.0,0.0,61,0.00,,,0.00,Wunderground PWS Mod,2013-03-17 00:10:00,
2013-03-16 20:12:00,61.5,49.6,30.05,N/A,-737280,0.0,0.0,65,0.00,,,0.00,Wunderground PWS Mod,2013-03-17 00:12:00,
2013-03-16 20:16:00,62.9,49.7,30.05,SE,140,0.0,0.0,62,0.00,,,0.00,Wunderground PWS Mod,2013-03-17 00:16:00,
2013-03-16 20:22:00,62.3,50.0,30.05,SE,140,0.0,0.0,64,0.00,,,0.00,Wunderground PWS Mod,2013-03-17 00:22:00,
2013-03-16 20:28:00,61.6,49.7,30.05,SE,140,0.0,0.0,65,0.00,,,0.00,Wunderground PWS Mod,2013-03-17 00:28:00,
2013-03-16 20:34:00,61.2,49.3,30.05,SE,140,0.0,0.0,65,0.00,,,0.00,Wunderground PWS Mod,2013-03-17 00:34:00,
2013-03-16 20:36:00,59.8,49.6,30.05,N/A,-737280,0.0,0.0,69,0.00,,,0.00,Wunderground PWS Mod,2013-03-17 00:36:00,
2013-03-16 20:40:00,60.7,49.7,30.05,SE,140,0.0,0.0,67,0.00,,,0.00,Wunderground PWS Mod,2013-03-17 00:40:00,
2013-03-16 20:48:00,60.2,49.6,30.05,SE,140,0.0,0.0,68,0.00,,,0.00,Wunderground PWS Mod,2013-03-17 00:48:00,
2013-03-16 20:54:00,59.8,49.2,30.05,SE,140,0.0,0.0,68,0.00,,,0.00,Wunderground PWS Mod,2013-03-17 00:54:00,
2013-03-16 21:00:00,59.3,49.1,30.05,SE,140,0.0,0.0,69,0.00,,,0.00,Wunderground PWS Mod,2013-03-17 01:00:00,
2013-03-16 21:06:00,59.0,49.2,30.05,SE,140,0.0,0.0,70,0.00,,,0.00,Wunderground PWS Mod,2013-03-17 01:06:00,
2013-03-16 21:12:00,58.7,48.9,30.05,SE,140,0.0,0.0,70,0.00,,,0.00,Wunderground PWS Mod,2013-03-17 01:12:00,
2013-03-16 21:14:00,57.5,48.9,30.06,N/A,-737280,0.0,0.0,73,0.00,,,0.00,Wunderground PWS Mod,2013-03-17 01:14:00,
2013-03-16 21:18:00,58.3,48.9,30.05,SE,140,0.0,0.0,71,0.00,,,0.00,Wunderground PWS Mod,2013-03-17 01:18:00,
2013-03-16 21:24:00,58.0,49.0,30.06,SE,140,0.0,0.0,72,0.00,,,0.00,Wunderground PWS Mod,2013-03-17 01:24:00,
2013-03-16 21:30:00,57.6,49.0,30.06,SE,140,0.0,0.0,73,0.00,,,0.00,Wunderground PWS Mod,2013-03-17 01:30:00,
2013-03-16 21:36:00,57.2,49.0,30.06,SE,140,0.0,0.0,74,0.00,,,0.00,Wunderground PWS Mod,2013-03-17 01:36:00,
2013-03-16 21:42:00,57.0,48.8,30.06,SE,140,0.0,0.0,74,0.00,,,0.00,Wunderground PWS Mod,2013-03-17 01:42:00,
2013-03-16 21:44:00,56.2,48.7,30.07,N/A,-737280,0.0,0.0,76,0.00,,,0.00,Wunderground PWS Mod,2013-03-17 01:44:00,
2013-03-16 21:48:00,56.7,48.9,30.06,SE,140,0.0,0.0,75,0.00,,,0.00,Wunderground PWS Mod,2013-03-17 01:48:00,
2013-03-16 21:54:00,56.5,49.0,30.07,SE,140,0.0,0.0,76,0.00,,,0.00,Wunderground PWS Mod,2013-03-17 01:54:00,
2013-03-16 22:00:00,56.3,48.8,30.07,SE,140,0.0,0.0,76,0.00,,,0.00,Wunderground PWS Mod,2013-03-17 02:00:00,
2013-03-16 22:06:00,56.0,48.5,30.08,SE,140,0.0,0.0,76,0.00,,,0.00,Wunderground PWS Mod,2013-03-17 02:06:00,
2013-03-16 22:12:00,56.0,48.9,30.08,SE,140,0.0,0.0,77,0.00,,,0.00,Wunderground PWS Mod,2013-03-17 02:12:00,
2013-03-16 22:18:00,56.2,49.1,30.08,SE,140,0.0,0.0,77,0.00,,,0.00,Wunderground PWS Mod,2013-03-17 02:18:00,
2013-03-16 22:20:00,56.3,49.2,30.08,N/A,-737280,0.0,0.0,77,0.00,,,0.00,Wunderground PWS Mod,2013-03-17 02:20:00,
2013-03-16 22:24:00,56.2,49.1,30.08,SE,140,0.0,0.0,77,0.00,,,0.00,Wunderground PWS Mod,2013-03-17 02:24:00,
2013-03-16 22:30:00,56.2,49.1,30.08,SE,140,0.0,0.0,77,0.00,,,0.00,Wunderground PWS Mod,2013-03-17 02:30:00,
2013-03-16 22:36:00,56.3,49.5,30.08,SE,140,0.0,0.0,78,0.00,,,0.00,Wunderground PWS Mod,2013-03-17 02:36:00,
2013-03-16 22:42:00,56.5,49.4,30.08,SE,140,0.0,0.0,77,0.00,,,0.00,Wunderground PWS Mod,2013-03-17 02:42:00,
2013-03-16 22:48:00,56.6,49.1,30.08,SE,140,0.0,0.0,76,0.00,,,0.00,Wunderground PWS Mod,2013-03-17 02:48:00,
2013-03-16 22:52:00,57.2,50.1,30.08,N/A,-737280,0.0,0.0,77,0.00,,,0.00,Wunderground PWS Mod,2013-03-17 02:52:00,
2013-03-16 22:54:00,56.7,49.2,30.08,SE,140,0.0,0.0,76,0.00,,,0.00,Wunderground PWS Mod,2013-03-17 02:54:00,
2013-03-16 23:00:00,56.9,49.4,30.08,SE,140,0.0,0.0,76,0.00,,,0.00,Wunderground PWS Mod,2013-03-17 03:00:00,
2013-03-16 23:06:00,57.0,49.5,30.08,SE,140,0.0,0.0,76,0.00,,,0.00,Wunderground PWS Mod,2013-03-17 03:06:00,
2013-03-16 23:12:00,57.2,50.1,30.08,SE,140,0.0,0.0,77,0.00,,,0.00,Wunderground PWS Mod,2013-03-17 03:12:00,
2013-03-16 23:18:00,57.8,50.3,30.08,SE,140,0.0,0.0,76,0.00,,,0.00,Wunderground PWS Mod,2013-03-17 03:18:00,
2013-03-16 23:20:00,58.1,50.2,30.08,N/A,-737280,0.0,0.0,75,0.00,,,0.00,Wunderground PWS Mod,2013-03-17 03:20:00,
2013-03-16 23:24:00,58.0,50.1,30.08,SE,140,0.0,0.0,75,0.00,,,0.00,Wunderground PWS Mod,2013-03-17 03:24:00,
2013-03-16 23:30:00,58.0,50.5,30.08,SE,140,0.0,0.0,76,0.00,,,0.00,Wunderground PWS Mod,2013-03-17 03:30:00,
2013-03-16 23:36:00,58.1,50.2,30.09,SE,140,0.0,0.0,75,0.00,,,0.00,Wunderground PWS Mod,2013-03-17 03:36:00,
2013-03-16 23:42:00,58.1,50.2,30.09,SE,140,0.0,0.0,75,0.00,,,0.00,Wunderground PWS Mod,2013-03-17 03:42:00,
2013-03-16 23:44:00,57.6,50.4,30.08,N/A,-737280,0.0,0.0,77,0.00,,,0.00,Wunderground PWS Mod,2013-03-17 03:44:00,
2013-03-16 23:48:00,58.0,50.5,30.09,SE,140,0.0,0.0,76,0.00,,,0.00,Wunderground PWS Mod,2013-03-17 03:48:00,
2013-03-16 23:54:00,57.8,50.3,30.09,SE,140,0.0,0.0,76,0.00,,,0.00,Wunderground PWS Mod,2013-03-17 03:54:00,